Regional Weather Roundup
Issued by NWS

Home | Current Version | Previous Version | Graphics & Text | Print | Product List | Glossary On
Versions: 1 2 3 4 5 6 7 8 9 10 11 12 13 14 15 16 17 18 19 20 21 22 23 24 25 26 27 28 29 30 31 32 33 34 35 36 37 38 39 40 41 42 43 44 45 46 47 48 49 50
000
ASUS43 KMPX 192010
RWRMN
WEATHER ROUNDUP FOR MINNESOTA
NATIONAL WEATHER SERVICE TWIN CITIES/CHANHASSEN MN
300 PM CDT TUE AUG 19 2014


NOTE: "FAIR" INDICATES FEW OR NO CLOUDS BELOW 12,000 FEET WITH NO
SIGNIFICANT WEATHER AND/OR OBSTRUCTIONS TO VISIBILITY. N/A MEANS
CURRENT SKY AND/OR WEATHER CONDITIONS ARE NOT AVAILABLE.

MNZ060>063-068>070-192100-
   Twin Cities Metro

CITY           SKY/WX    TMP DP  RH WIND       PRES   REMARKS
TWIN CITIES    MOSUNNY   80  61  52 NW7       29.74F
ST PAUL        PTSUNNY   77  60  55 NW8       29.74F
CRYSTAL        PTSUNNY   81  61  50 VRB6      29.73F
BLAINE         PTSUNNY   79  63  57 NW10      29.74S
LAKEVILLE      PTSUNNY   75  63  64 W3        29.76S
EDEN PRAIRIE   MOSUNNY   79  64  60 N6        29.74F
SOUTH ST PAUL  MOSUNNY   78  60  53 W8        29.74F
LAKE ELMO      PTSUNNY   77  63  61 W7        29.76S
$$
MNZ001>005-007-008-013>017-022>024-027-028-192100-
   Northwest Minnesota

CITY           SKY/WX    TMP DP  RH WIND       PRES   REMARKS
BEMIDJI        CLOUDY    72  60  65 N7        29.78S
HALLOCK        SUNNY     77  64  65 CALM      29.74F
ROSEAU         SUNNY     73  64  73 CALM      29.76F
WARROAD        MOSUNNY   72  64  78 E10       29.78S
THIEF RVR FALL PTSUNNY   75  61  60 N7        29.76S
CROOKSTON      SUNNY     79  64  61 N6        29.76S
FOSSTON        MOSUNNY   77  61  57 CALM      29.77S
DETROIT LAKES  MOSUNNY   77  63  61 NW10      29.79F
MOORHEAD       SUNNY     79  66  65 NE7       29.76F
PARK RAPIDS    MOSUNNY   78  59  51 N13       29.76S
MAHNOMEN       FAIR      76  63  63 N6        29.76F
$$
MNZ006-009>011-018-025>026-192100-
   North Central Minnesota

CITY           SKY/WX    TMP DP  RH WIND       PRES   REMARKS
BAUDETTE       MOSUNNY   74  62  66 NW7       29.77R
FLAG ISLAND    CLOUDY    68  61  77 NW5       29.77R
INTL FALLS     CLOUDY    71  59  65 NE7       29.77R
WASKISH        CLOUDY    72  64  78 SW5       29.77S
BIG FORK       MOSUNNY   72  61  68 N3        29.77S
LONGVILLE      PTSUNNY   73  63  68 N5        29.76S
GRAND RAPIDS   PTSUNNY   72  61  68 N8        29.76S
ORR            CLOUDY    68  57  68 CALM      29.74F
COOK           CLOUDY    66  61  82 N3        29.77S
WALKER         LGT RAIN  69  64  84 N5        29.76F
$$
MNZ012-019>021-037-192100-
   Northeast Minnesota

CITY           SKY/WX    TMP DP  RH WIND       PRES   REMARKS
DULUTH         PTSUNNY   70  63  78 N8        29.74R
ELY            CLOUDY    63  59  88 CALM      29.76S FOG
HIBBING        CLOUDY    70  61  73 N7        29.75S
EVELETH        CLOUDY    68  59  73 NE8       29.76F
DULUTH HARBOR  PTSUNNY   68  64  88 CALM      29.73R
TWO HARBORS    CLOUDY    64  61  88 E5        29.72S
SILVER BAY     PTSUNNY   63  63 100 CALM      29.72S
GRAND MARAIS     N/A     60  58  92 CALM      29.73R
G MARAIS ARPRT DRIZZLE   61  55  82 N5        29.76S
$$
MNZ029>031-032-039>041-046>048-054>057-064-192100-
   West Central Minnesota

CITY           SKY/WX    TMP DP  RH WIND       PRES   REMARKS
FERGUS FALLS   MOSUNNY   79  59  50 NW6       29.75F
WHEATON        SUNNY     79  64  61 W8        29.78S
MORRIS         SUNNY     82  63  51 N10       29.76F
ALEXANDRIA     MOSUNNY   79  62  56 NW9       29.78F
ELBOW LAKE     FAIR      78  64  61 NW8       29.77S
WADENA         MOSUNNY   77  61  57 NW10      29.76S
GLENWOOD       SUNNY     79  63  57 NW9       29.78S
APPLETON       MOSUNNY   82  63  51 NW7       29.76F
BENSON         MOSUNNY   82  64  54 N10       29.77S
ORTONVILLE     MOSUNNY   81  63  54 N10G16    29.77S
MADISON        SUNNY     84  64  51 N10       29.78R
WILLMAR        FAIR      81  63  54 NW10      29.78S
$$
MNZ033>034-036-042>043-049>051-058-059-192100-
   Central Minnesota

CITY           SKY/WX    TMP DP  RH WIND       PRES   REMARKS
ST CLOUD       PTSUNNY   80  62  54 W12       29.74F
SAUK CENTRE    MOCLDY    79  62  54 W15       29.76F
PAYNESVILLE    MOSUNNY   78  61  54 W12       29.76F
AITKIN         MOSUNNY   77  66  69 NW3       29.74S
PINE RIVER     CLOUDY    75  63  64 N6        29.79S
BRAINERD       PTSUNNY   74  64  71 NE8       29.76S
STAPLES        PTSUNNY   75  61  60 N7        29.76S
LONG PRAIRIE   FAIR      77  63  61 NW6       29.76F
LITTLE FALLS   MOSUNNY   75  61  60 NW7       29.75F
LITCHFIELD     PTSUNNY   81  66  61 NW8       29.76S
BUFFALO        CLOUDY    77  61  56 NW9       29.76S
MAPLE LAKE     MOSUNNY   77  66  69 NW8       29.76S
$$
MNZ037-044-045-052-053-192100-
   East Central Minnesota

CITY           SKY/WX    TMP DP  RH WIND       PRES   REMARKS
PRINCETON      MOSUNNY   79  64  61 N5        29.74S
MORA           MOSUNNY   72  63  73 W8        29.75F
CAMBRIDGE      MOSUNNY   79  63  57 NW8       29.73S
RUSH CITY      PTSUNNY   74  62  66 NW7       29.74S
MOOSE LAKE     PTSUNNY   73  61  64 N3        29.72S
HINCKLEY       LGT RAIN  72  64  78 NW3       29.74R
CLOQUET        PTSUNNY   72  59  64 W6        29.74S
MCGREGOR       PTSUNNY   73  61  64 N7        29.74F
$$
MNZ071>073-080-081-089-090-097-098-192100-
   Southwest Minnesota

CITY           SKY/WX    TMP DP  RH WIND       PRES   REMARKS
MONTEVIDEO     SUNNY     82  66  57 NE9       29.78S
GRANITE FALLS  MOSUNNY   81  66  61 NW9       29.78S
CANBY          SUNNY     83  62  49 NW7       29.79S
MARSHALL       PTSUNNY   81  63  54 NW9       29.78S
REDWOOD FALLS  MOSUNNY   82  63  52 N7        29.76S
OLIVIA         MOSUNNY   81  63  54 NW9       29.76S
PIPESTONE      MOSUNNY   81  63  54 NW7       29.82S
WINDOM         MOSUNNY   79  64  61 NW5       29.80S
WORTHINGTON    PTSUNNY   81  19  10 NW7       29.83S
JACKSON        PTSUNNY   79  61  53 W6        29.81F
TRACY          PTSUNNY   82  64  55 CALM      29.79F
SLAYTON        MOSUNNY   84  58  41 CALM      29.82S
$$
MNZ065>067-074>077-082>085-091>093-192100-
   South Central Minnesota

CITY           SKY/WX    TMP DP  RH WIND       PRES   REMARKS
MANKATO        PTSUNNY   77  63  61 NW6       29.77S
NEW ULM        SUNNY     81  64  57 NW14      29.76S
FAIRMONT       PTSUNNY   82  57  42 W10       29.79F
GLENCOE        PTSUNNY   79  62  55 N6        29.75S
FARIBAULT      MOSUNNY   81  57  44 NW5       29.77F
OWATONNA       MOSUNNY   79  61  53 NW8       29.78S
WASECA         MOSUNNY   77  61  57 W5        29.80S
ALBERT LEA     MOSUNNY   77  63  61 NW6       29.79S
$$
MNZ078>079-086>088-094>096-192100-
   Southeast Minnesota

CITY           SKY/WX    TMP DP  RH WIND       PRES   REMARKS
ROCHESTER      MOSUNNY   77  63  61 NW9G17    29.78F
RED WING       CLOUDY    75  61  60 CALM      29.74S
STANTON        PTSUNNY   79  62  57 NW6       29.75S
DODGE CENTER   PTSUNNY   75  64  69 NW9       29.79S
WINONA         PTSUNNY   77  63  61 N5        29.74S
AUSTIN         MOSUNNY   79  63  57 W9        29.78S
PRESTON        PTSUNNY   75  66  72 W13       29.78S
$$
ABBREVIATIONS USED IN REMARKS
   TC - TEMPERATURES IN CELSIUS
  WCI - WIND CHILL INDEX
   HX - HEAT INDEX
  VSB - VISIBILITY
$$


USA.gov is the U.S. government's official web portal to all federal, state and local government web resources and services.